Temperature
15 16 16 16 16 16 16 16 16 16 16 17 16 16 16 16 16 16 16 16 15 15 15 15 15 15 15 15 15 15 15 15 15 15 15 15 15 15 15 15 15 14 14
16 16 16 16 16 16 16 16 16 16 16 16 16 16 16 16 16 16 15 15 15 15 15 15 15 15 15 15 15 15 15 15 15 15 15 15 15 15 15 15 15 15 14
16 16 16 16 16 16 16 16 16 16 16 16 16 16 16 16 15 15 15 15 15 15 15 15 15 15 15 15 15 15 15 15 15 15 15 15 15 15 15 15 15 15 15
16 16 16 16 16 16 16 16 16 15 15 15 15 15 15 15 15 15 15 15 15 15 15 15 15 15 15 15 15 15 15 15 15 15 15 15 15 14 15 15 15 15 15
16 15 15 15 15 15 15 16 15 15 15 15 15 15 15 15 15 15 15 15 15 15 15 15 15 15 15 15 15 15 15 14 14 14 15 15 14 14 14 15 15 15 14
15 15 15 15 15 15 15 15 15 15 15 15 15 15 15 15 15 15 15 15 15 15 15 15 15 15 15 15 14 14 14 14 14 14 14 14 14 14 14 14 14 14 14
15 15 15 15 15 15 15 15 15 15 15 15 15 15 15 15 15 15 15 15 15 15 15 15 15 15 15 14 14 14 14 14 14 14 14 14 14 14 14 14 14 14 14
15 15 15 15 15 15 15 15 15 15 15 15 15 15 15 15 15 15 15 15 15 15 15 15 15 15 15 14 14 14 14 14 14 14 14 14 14 14 14 14 14 14 14
14 14 14 14 14 14 15 15 15 15 15 15 15 15 15 15 15 15 15 15 15 15 15 14 14 14 14 14 14 14 14 14 14 14 14 14 13 13 13 13 13 13 14
14 14 14 14 14 14 14 14 14 14 15 15 15 15 15 15 15 15 14 14 14 14 14 14 14 14 14 14 14 14 13 14 14 14 14 13 13 13 13 13 13 13 13
13 13 13 14 14 14 14 14 14 14 14 14 14 14 15 15 14 14 14 14 14 14 14 14 14 14 14 14 13 13 13 13 13 13 13 13 13 13 13 13 13 13 13
13 13 13 13 13 13 13 13 14 14 14 14 14 14 14 14 14 14 14 14 14 14 14 14 14 14 13 13 13 13 13 13 13 13 13 13 13 13 13 13 13 13 12
13 13 13 13 13 13 13 13 13 13 13 14 14 14 14 14 14 14 14 14 14 13 13 13 13 13 13 13 13 13 13 13 13 13 13 13 13 13 13 12 12 12 12
13 12 12 13 13 13 13 13 13 13 13 13 13 13 14 14 13 13 13 13 13 13 13 13 13 13 13 13 13 13 13 13 12 12 12 12 12 12 12 12 12 12 12
12 12 12 12 12 12 12 12 13 13 13 13 13 13 13 13 13 13 13 13 13 13 13 13 13 13 13 12 12 12 12 12 12 12 12 12 12 12 12 12 12 12 12
12 12 12 12 12 12 12 12 12 13 13 13 13 13 13 13 13 13 13 13 13 13 12 12 12 12 12 12 12 12 12 12 12 12 12 12 12 12 12 12 11 11 11
12 12 12 12 12 12 12 12 12 12 12 13 13 13 13 12 12 13 13 12 12 12 12 12 12 12 12 12 12 12 12 12 12 12 11 11 11 11 11 11 11 11 11
12 12 12 11 11 12 12 12 12 12 12 12 12 12 12 12 12 12 12 12 12 12 12 12 12 12 12 12 11 11 11 11 11 11 11 11 11 11 11 11 11 11 11
12 12 11 11 11 11 11 11 11 11 12 12 12 12 12 12 12 12 12 12 12 12 11 11 11 11 11 11 11 11 11 11 11 11 10 10 10 10 10 10 10 10 10
12 11 11 11 11 11 11 11 11 11 11 11 11 12 11 11 12 11 11 12 11 11 11 11 11 11 11 11 11 11 10 10 10 10 10 10 10 10 10 10 10 10 10
11 11 11 11 11 11 11 11 11 11 11 11 11 11 11 11 11 11 11 11 11 11 11 11 11 10 10 10 10 10 10 9 9 9 10 10 10 10 10 9 9 9 9
11 11 11 11 11 11 11 11 11 11 11 11 10 11 11 11 11 11 11 11 11 11 10 10 10 10 10 10 10 9 9 9 9 9 9 9 9 9 9 9 9 9 9
11 11 10 11 11 11 10 10 10 10 10 10 10 10 10 10 10 11 11 11 10 11 10 10 10 10 10 10 9 9 9 8 8 8 8 8 8 9 9 9 9 9 9
11 11 10 10 10 10 10 10 10 10 10 10 10 10 10 10 10 10 10 10 10 10 10 10 10 10 10 9 9 9 9 9 8 7 8 8 8 8 8 8 8 8 8
11 10 10 10 10 10 10 10 10 10 10 10 10 10 10 10 10 10 10 10 10 10 10 10 9 9 9 9 9 9 9 9 8 8 7 7 8 8 8 8 8 8 8
10 10 10 10 10 10 9 9 9 10 10 9 9 9 9 9 9 9 9 9 9 9 9 9 9 9 9 9 8 8 8 8 8 8 7 7 7 7 7 7 7 7 7
Wind_Speed
4 8 12 12 11 11 11 11 12 11 11 11 11 11 12 13 13 13 13 13 13 13 13 12 12 13 13 14 14 15 15 15 15 15 15 15 15 16 15 15 14 13 15
7 10 12 12 12 11 11 11 11 11 11 11 11 11 11 11 12 12 13 13 13 13 13 12 12 12 13 13 14 14 14 14 14 15 15 15 15 15 14 14 13 12 14
9 10 12 12 12 11 11 11 11 11 11 11 11 11 11 11 11 12 12 12 12 12 12 12 12 12 12 12 13 13 13 13 13 14 13 12 13 14 14 13 13 14 13
11 11 11 11 12 11 10 10 10 10 10 10 11 11 11 11 11 11 11 11 11 11 11 12 12 12 12 12 12 11 12 13 14 13 12 11 11 12 13 13 13 13 13
9 11 11 12 12 11 10 10 9 10 10 10 10 10 11 11 12 11 11 11 11 11 11 12 12 11 11 11 11 11 11 12 12 12 11 11 10 12 12 12 12 12 12
8 10 11 12 12 11 10 10 9 9 10 10 11 10 11 11 12 11 11 11 11 11 11 12 11 10 10 10 10 10 11 11 12 12 10 10 10 11 11 11 11 11 12
8 9 11 12 12 11 11 10 9 9 10 10 11 11 10 11 12 12 11 11 11 11 11 11 11 10 10 9 10 10 10 11 11 11 9 9 10 10 11 11 11 11 11
9 8 10 10 11 11 11 10 10 10 10 10 11 11 10 11 12 12 12 12 12 11 11 11 10 10 9 9 9 10 10 10 10 10 9 8 10 10 10 10 10 10 10
8 8 8 9 9 10 10 10 10 10 11 11 11 11 10 11 12 12 11 12 12 11 11 10 10 10 9 9 9 10 11 11 10 9 8 8 9 9 9 9 9 9 9
6 6 6 7 8 9 10 10 10 11 11 11 11 11 10 10 12 11 11 11 11 11 11 10 9 9 9 9 9 10 11 10 9 8 8 8 9 8 8 8 8 8 8
5 4 5 5 7 8 9 9 10 11 11 11 10 11 10 9 10 10 10 11 11 11 10 9 9 8 8 8 9 10 10 9 9 8 7 8 8 7 7 7 7 7 6
6 5 5 6 6 7 7 8 9 9 9 9 9 10 9 9 9 9 10 11 10 10 10 9 9 8 7 7 8 9 9 9 9 7 7 7 7 7 7 7 7 6 6
7 6 6 7 7 6 6 7 7 7 8 8 9 9 10 9 9 8 8 8 8 8 7 8 8 7 6 6 7 7 9 8 8 7 6 6 6 6 6 6 6 6 6
7 6 6 6 6 6 7 6 7 6 6 6 8 10 9 7 6 6 6 6 7 6 6 6 6 7 7 7 7 7 8 7 7 7 7 7 6 6 6 6 6 5 5
7 6 6 7 7 7 6 5 6 6 7 7 8 10 10 7 6 6 6 6 6 6 6 5 5 6 6 6 6 6 7 7 8 7 7 7 7 6 5 5 5 5 5
8 8 6 7 7 7 6 5 5 6 7 8 8 9 11 9 7 7 6 6 6 6 6 6 5 5 5 5 5 6 7 7 8 8 7 7 8 7 6 6 6 5 6
9 8 8 7 7 7 7 6 6 7 8 7 7 9 11 11 9 8 6 5 6 7 7 7 6 6 5 5 5 5 6 7 7 7 7 7 7 7 7 7 6 6 5
8 8 8 8 6 7 6 6 6 7 7 7 8 8 10 11 11 9 7 5 7 7 6 5 4 4 4 4 4 3 4 6 7 7 7 7 6 6 7 7 6 5 5
9 9 8 7 7 6 6 6 6 6 6 7 8 8 8 10 11 9 7 7 8 6 5 4 4 4 4 3 3 3 3 4 5 6 6 6 6 5 5 5 6 5 5
8 8 8 8 7 6 6 5 4 4 4 6 7 8 9 9 10 9 7 8 8 5 3 4 4 3 3 3 4 4 3 3 4 4 4 5 5 5 4 4 4 4 5
8 8 8 8 8 7 6 6 5 4 4 4 5 8 8 9 10 10 7 7 6 5 4 5 5 5 3 3 4 3 4 4 3 2 3 4 4 4 4 3 3 3 3
9 9 10 10 9 8 7 5 4 4 3 3 4 6 8 9 10 9 8 6 6 5 5 5 5 4 2 2 3 3 2 2 3 3 2 2 2 3 3 2 2 2 2
10 10 9 10 9 8 7 6 5 4 4 3 3 4 5 8 9 9 9 7 6 6 6 5 5 5 3 1 1 3 3 2 1 2 2 2 2 2 2 2 2 2 2
10 9 9 9 8 8 8 9 10 7 6 5 5 4 5 7 8 9 9 8 6 5 6 5 4 3 4 3 1 1 1 3 3 1 1 2 2 1 1 1 2 2 2
8 8 8 8 8 8 8 9 9 7 5 4 5 6 5 5 6 7 8 7 6 5 5 5 4 4 3 3 2 1 1 1 2 2 1 1 2 2 1 1 1 1 2
7 7 8 8 7 8 9 8 9 9 8 8 8 7 5 4 4 5 7 6 6 5 5 5 4 4 3 3 2 2 2 2 2 2 2 2 2 2 2 1 1 2 2
Wind_Direction
166 164 151 144 138 133 129 127 125 122 121 120 118 116 114 113 112 110 110 111 111 110 111 110 107 104 102 101 99 96 93 91 90 87 86 87 91 91 87 83 81 81 84
152 149 143 140 138 134 130 126 130 127 126 125 125 123 121 120 119 119 115 114 112 111 109 109 109 107 104 102 101 98 95 93 91 88 87 88 90 90 88 85 83 87 85
136 138 139 137 135 135 132 130 131 133 133 130 128 125 122 123 123 122 119 117 114 111 111 110 107 106 105 104 102 100 97 95 95 92 90 88 89 91 89 87 87 87 86
136 137 138 139 138 134 135 135 135 139 139 136 132 130 127 125 123 122 122 121 119 114 114 112 109 106 106 105 102 99 98 98 99 95 90 88 91 95 93 92 91 89 86
133 136 140 140 140 138 136 137 140 143 146 141 136 135 135 132 127 121 121 123 122 119 117 116 113 111 108 106 102 100 101 100 101 99 93 90 92 97 96 95 93 91 89
134 135 142 144 142 141 141 141 142 145 144 144 142 138 138 135 132 127 120 120 123 122 120 120 116 115 111 105 102 102 101 102 106 102 96 95 98 100 97 95 96 94 91
138 137 142 145 146 145 146 145 143 144 144 145 146 142 141 140 136 131 127 122 120 124 124 122 119 117 113 106 100 100 103 105 108 104 102 103 107 105 100 98 96 97 95
143 140 142 146 149 150 151 150 148 148 146 147 146 143 143 142 141 135 129 126 123 120 125 125 122 118 114 106 97 94 102 112 111 107 104 109 113 110 104 100 99 96 93
137 138 141 148 149 150 152 154 154 152 150 147 144 141 141 142 141 137 133 129 126 123 119 123 123 120 114 104 95 92 98 109 109 108 107 112 115 112 108 104 101 99 96
136 142 142 143 147 148 149 153 156 153 150 148 142 139 138 138 139 134 134 133 129 127 123 117 116 121 115 104 96 93 96 101 105 105 105 112 116 116 113 111 108 108 103
146 155 150 144 145 149 151 155 156 155 152 147 143 143 140 137 137 134 134 135 133 129 125 121 114 113 114 104 97 95 94 98 105 100 104 112 116 116 115 116 114 113 110
171 175 169 158 156 151 152 148 150 154 153 150 146 143 141 139 137 137 136 136 135 131 127 121 115 105 101 98 94 95 96 101 104 101 104 111 111 112 114 118 118 112 109
181 180 177 170 163 157 148 148 146 147 151 154 154 149 141 134 130 129 127 127 127 124 118 115 108 98 93 97 99 99 101 101 105 102 101 110 116 116 115 118 121 121 116
177 186 182 173 168 163 154 155 152 150 151 155 159 155 141 130 131 131 125 126 122 122 112 105 104 99 92 93 101 103 102 102 107 101 94 95 104 117 116 120 117 118 123
179 182 184 178 174 167 158 160 157 159 160 157 155 157 150 138 145 143 136 127 122 119 116 107 102 98 89 87 93 105 103 104 105 102 94 88 89 95 101 106 114 111 115
185 183 182 181 177 166 162 164 160 160 156 151 150 157 152 143 145 146 140 133 125 122 120 115 109 101 92 91 83 91 97 102 104 103 98 88 79 77 81 87 95 101 105
185 182 183 182 177 171 165 164 159 157 151 150 150 154 152 149 146 145 143 139 132 127 119 108 99 93 93 89 81 80 91 96 100 102 100 96 85 73 72 74 76 80 86
178 179 183 182 175 176 167 160 156 153 148 149 147 146 153 152 149 142 139 138 130 122 115 118 114 107 94 89 83 72 83 93 95 100 97 95 92 84 75 68 62 66 69
178 177 179 174 172 173 159 148 147 145 146 150 147 144 149 149 149 143 140 135 128 119 120 130 123 122 111 94 89 74 63 81 92 100 94 94 92 87 83 74 63 55 57
175 171 170 171 168 161 150 137 133 132 142 148 149 148 146 147 145 139 135 131 127 121 119 128 123 108 116 114 95 70 46 58 78 89 98 96 93 84 79 76 65 48 41
169 167 169 171 168 159 158 159 156 161 157 149 148 147 146 149 146 139 136 133 133 130 134 134 127 116 99 106 92 67 33 35 54 60 83 89 82 81 77 71 65 48 21
177 176 176 175 171 169 172 167 157 148 145 150 143 140 148 154 149 144 142 143 140 131 130 133 129 124 113 106 116 111 76 11 11 16 42 80 74 72 69 71 74 42 9
182 182 184 178 173 170 164 151 137 120 113 130 148 148 146 152 146 144 143 141 142 140 150 150 142 138 146 128 102 132 141 190 258 338 6 35 61 53 41 44 48 17 355
187 180 182 176 171 169 162 163 160 159 162 173 165 149 140 145 143 144 144 142 144 142 150 159 147 143 145 154 125 54 131 150 153 189 338 0 9 8 349 7 12 358 357
177 176 176 168 168 170 168 170 165 160 157 148 143 138 144 137 141 146 148 146 147 146 155 157 149 146 148 157 162 145 102 76 112 153 220 286 333 310 298 301 301 305 322
168 168 167 163 166 170 168 169 167 162 154 149 148 152 153 144 139 143 146 148 150 153 160 162 156 155 161 158 166 165 161 162 173 156 195 236 266 284 298 286 268 271 284
Height
1521 1522 1524 1526 1527 1528 1529 1530 1531 1532 1533 1534 1535 1536 1536 1537 1538 1538 1539 1539 1540 1541 1541 1542 1542 1543 1544 1544 1544 1545 1546 1546 1547 1547 1547 1547 1548 1548 1548 1548 1548 1548 1549
1519 1521 1523 1525 1526 1528 1529 1530 1531 1532 1533 1534 1535 1535 1536 1537 1538 1538 1539 1540 1540 1541 1542 1542 1543 1544 1544 1545 1545 1546 1547 1547 1548 1548 1549 1549 1549 1549 1549 1549 1550 1550 1550
1518 1520 1522 1524 1525 1527 1528 1529 1530 1531 1532 1533 1534 1535 1536 1536 1537 1538 1539 1540 1540 1541 1542 1543 1544 1544 1545 1546 1546 1547 1548 1548 1549 1549 1550 1550 1550 1551 1551 1551 1551 1551 1551
1518 1519 1521 1523 1524 1526 1527 1528 1529 1530 1531 1532 1533 1534 1535 1536 1537 1538 1539 1540 1540 1541 1542 1543 1544 1545 1546 1546 1547 1548 1548 1549 1550 1550 1551 1551 1551 1552 1552 1552 1552 1553 1553
1517 1519 1520 1522 1523 1524 1526 1527 1528 1529 1530 1531 1532 1533 1534 1536 1537 1538 1538 1539 1540 1541 1542 1543 1544 1545 1546 1547 1547 1548 1549 1550 1551 1551 1552 1552 1552 1553 1553 1553 1553 1554 1554
1516 1518 1519 1520 1522 1523 1524 1526 1527 1528 1529 1530 1531 1533 1534 1535 1536 1537 1538 1539 1540 1541 1542 1543 1544 1545 1546 1547 1548 1549 1549 1550 1551 1552 1553 1553 1553 1554 1554 1554 1555 1555 1555
1514 1516 1517 1519 1520 1521 1523 1524 1525 1526 1528 1529 1530 1532 1533 1534 1535 1537 1538 1539 1540 1541 1542 1543 1544 1546 1546 1547 1548 1549 1550 1551 1552 1552 1553 1554 1554 1555 1555 1555 1555 1556 1556
1513 1514 1516 1517 1518 1519 1521 1522 1524 1525 1526 1528 1529 1531 1532 1534 1535 1536 1538 1539 1540 1541 1542 1543 1544 1546 1547 1548 1548 1549 1550 1551 1552 1553 1554 1554 1555 1555 1556 1556 1556 1556 1557
1511 1512 1514 1515 1516 1518 1519 1520 1522 1523 1525 1526 1528 1529 1531 1533 1534 1536 1537 1538 1539 1541 1542 1543 1544 1545 1547 1548 1549 1549 1550 1551 1552 1553 1554 1555 1555 1556 1556 1556 1557 1557 1557
1510 1511 1512 1513 1514 1515 1517 1518 1520 1522 1523 1525 1526 1528 1530 1531 1533 1535 1536 1538 1539 1540 1542 1543 1544 1545 1547 1548 1549 1549 1550 1551 1552 1553 1554 1555 1555 1556 1556 1556 1557 1557 1557
1508 1509 1510 1511 1512 1513 1514 1516 1518 1520 1522 1523 1525 1527 1528 1530 1532 1534 1535 1537 1539 1540 1541 1543 1544 1545 1546 1548 1549 1549 1550 1551 1552 1553 1554 1555 1555 1556 1556 1556 1557 1557 1557
1505 1506 1508 1509 1509 1511 1512 1514 1516 1518 1520 1522 1523 1525 1527 1529 1531 1532 1535 1536 1538 1539 1541 1542 1544 1545 1546 1547 1548 1549 1550 1551 1552 1553 1554 1554 1555 1555 1556 1556 1556 1557 1557
1502 1504 1505 1506 1507 1508 1510 1511 1513 1515 1517 1520 1522 1523 1525 1527 1529 1531 1533 1535 1537 1539 1540 1541 1543 1544 1545 1547 1548 1549 1550 1551 1552 1552 1553 1554 1554 1555 1555 1555 1556 1556 1556
1499 1501 1502 1503 1505 1506 1507 1509 1511 1513 1515 1517 1519 1522 1523 1525 1527 1529 1531 1533 1535 1537 1539 1540 1542 1543 1545 1545 1547 1548 1549 1550 1551 1552 1553 1553 1554 1554 1554 1555 1555 1555 1556
1496 1498 1499 1501 1502 1503 1505 1507 1509 1511 1513 1515 1517 1519 1522 1523 1525 1528 1530 1532 1534 1536 1538 1539 1541 1542 1544 1545 1546 1547 1548 1549 1550 1551 1552 1552 1553 1553 1554 1554 1554 1554 1555
1493 1495 1497 1498 1499 1501 1502 1504 1506 1509 1511 1513 1515 1517 1520 1522 1524 1526 1528 1530 1533 1535 1537 1539 1540 1541 1543 1545 1545 1546 1548 1549 1550 1550 1551 1552 1552 1552 1553 1553 1553 1553 1554
1490 1492 1494 1496 1497 1498 1500 1502 1504 1506 1508 1511 1512 1515 1517 1520 1522 1524 1526 1529 1531 1533 1536 1538 1539 1541 1542 1543 1544 1546 1547 1548 1549 1550 1550 1551 1551 1552 1552 1552 1553 1553 1553
1487 1489 1491 1493 1494 1495 1497 1499 1502 1504 1506 1508 1510 1512 1515 1518 1520 1522 1524 1527 1529 1532 1534 1536 1538 1540 1541 1542 1543 1545 1546 1547 1548 1549 1549 1550 1550 1551 1551 1551 1551 1552 1551
1484 1486 1488 1489 1491 1493 1495 1497 1499 1501 1504 1506 1508 1510 1513 1515 1518 1520 1523 1525 1528 1530 1533 1534 1536 1538 1539 1541 1543 1544 1545 1546 1546 1547 1548 1549 1549 1549 1550 1550 1550 1550 1550
1481 1483 1485 1486 1488 1490 1492 1495 1497 1499 1501 1504 1506 1508 1510 1513 1516 1518 1521 1523 1526 1529 1531 1533 1534 1537 1538 1540 1541 1542 1544 1544 1545 1546 1546 1547 1547 1548 1548 1548 1548 1548 1548
1477 1479 1481 1483 1484 1487 1489 1491 1493 1495 1498 1501 1503 1505 1508 1511 1514 1516 1519 1521 1524 1527 1529 1531 1533 1535 1537 1538 1539 1540 1542 1543 1543 1544 1545 1545 1545 1546 1546 1546 1546 1546 1546
1473 1475 1477 1479 1481 1483 1486 1489 1491 1493 1496 1499 1501 1503 1506 1509 1511 1514 1517 1520 1522 1525 1528 1530 1531 1533 1535 1537 1538 1538 1540 1542 1542 1543 1543 1543 1544 1544 1544 1544 1544 1544 1544
1469 1471 1473 1475 1478 1480 1483 1486 1489 1491 1494 1496 1499 1501 1504 1507 1509 1512 1515 1518 1520 1523 1525 1528 1529 1531 1533 1535 1536 1538 1538 1538 1539 1540 1540 1541 1541 1541 1542 1542 1542 1542 1542
1465 1468 1470 1472 1475 1477 1480 1483 1485 1487 1490 1493 1495 1498 1502 1505 1507 1510 1513 1516 1518 1521 1523 1526 1528 1530 1531 1533 1534 1535 1536 1536 1537 1537 1538 1538 1539 1539 1539 1539 1539 1539 1539
1462 1464 1467 1469 1472 1474 1477 1480 1483 1485 1488 1491 1494 1497 1500 1503 1506 1509 1511 1514 1516 1519 1522 1524 1526 1527 1529 1531 1532 1533 1533 1534 1534 1534 1534 1535 1536 1536 1536 1536 1536 1537 1537
1459 1461 1464 1466 1469 1472 1474 1477 1480 1483 1486 1488 1491 1494 1498 1501 1504 1507 1509 1512 1514 1517 1519 1521 1523 1525 1526 1528 1529 1530 1531 1531 1530 1531 1530 1531 1531 1532 1533 1533 1533 1533 1533